パンスターズ彗星

365P/PanSTARRS (2018)

English version
Home page
Updated on September 22, 2018

---------------------------------------------------------------------

・ プロフィール

符号 365P/2011 WG113
再発見日 2017年10月21日
再発見光度 21.4等
再発見者 D. C. Fuls (Mount Lemmon)

・ 写真集

・ 軌道要素

Epoch 2018 Feb. 11.0 TT = JDT 2458160.5
T 2018 Feb. 10.76026 TT                                 MPCW
q   1.3591128            (2000.0)            P               Q
n   0.17336464     Peri.   66.40055     -0.88412994     -0.43495686
a   3.1853883      Node    87.44221     +0.34163641     -0.85096643
e   0.5733290      Incl.    9.83642     +0.31874568     -0.29439543
P   5.69
From 245 observations 2011 Nov. 24-2018 Mar. 25, mean residual 0".4.

・ 星図

・ 光度変化

        m1 = 17.0 + 5 logΔ + 10.0 log r

---------------------------------------------------------------------

軌道要素はM.P.E.C. 2018-F152に掲載されたものです。
星図はステラナビゲータ Ver.10 (アストロアーツ) で作成したものです。
光度グラフはComet for Windowsで作成したものです。

---------------------------------------------------------------------

Copyright(C) Seiichi Yoshida (comet@aerith.net). All rights reserved.